Regional Weather Roundup
Issued by NWS

Current Version | Previous Version | Text Only | Print | Product List | Glossary On
Versions: 1 2 3 4 5 6 7 8 9 10 11 12 13 14 15 16 17 18 19 20 21 22 23 24 25 26 27 28 29 30 31 32 33 34 35 36 37 38 39 40 41 42 43 44 45 46 47 48 49 50
000
ASCA42 TJSJ 031310
RWRPR
PUERTO RICO/U.S. VIRGIN ISLANDS HOURLY WEATHER ROUNDUP
NATIONAL WEATHER SERVICE SAN JUAN PR
900 AM AST TUE MAR 03 2015

PRZ001-004-031400-
PUERTO RICO

CITY           SKY/WX    TMP DP  RH WIND       PRES   REMARKS
SAN JUAN LMM   MOSUNNY   79  70  73 NE12      30.08R
AGUADILLA      MOSUNNY   77  68  73 E15       30.09R
CEIBA          PTSUNNY  N/A N/A N/A NE8       30.10R
$$

PRZ006-007-031400-
U.S. VIRGIN ISLANDS

CITY           SKY/WX    TMP DP  RH WIND       PRES   REMARKS
$$

HOURLY WEATHER ROUNDUP FOR THE NEWS MEDIA

CITY           SKY/WX    TMP DP  RH WIND       PRES   REMARKS
ORLANDO        FOG       65  64  97 NE5       30.23R VSB 1/2
NEW YORK       PTSUNNY   25  10  53 CALM      30.46R
NEWARK         PTSUNNY   24   9  52 N3        30.45S
CHICAGO        FRZ DRZL  25  23  92 SE14      29.89F FOG     WCI  13
HARTFORD       SUNNY     18   7  62 VRB6      30.42R WCI  10
BOSTON         MOSUNNY   22   3  44 NW12      30.40R WCI  10
DALLAS         DRIZZLE   43  43 100 SE7       30.01F FOG
PHILADELPHIA   CLOUDY    27  10  49 N3        30.48R
LOS ANGELES    PTCLDY    49  43  80 N6        29.93S
WASHINGTON DC  CLOUDY    28  16  60 CALM      30.44R


USA.gov is the U.S. government's official web portal to all federal, state and local government web resources and services.